星链-5788 (STARLINK-5788 )

导读

STARLINK-5788是美国太空探索技术公司Starlink星链互联网卫星星座中的一颗卫星,于2023年6月23日发射入轨。星链项目旨在构建全球覆盖的卫星互联网星座,为全球偏远、欠发达区域以及特殊场景提供高速互联网接入服务,该卫星服役后,进一步扩充了星链星座的在轨运行卫星规模。

Basic Information
目录编号:
57148
目录名称:
STARLINK-5788
国际标识:
2023-090AZ
轨道中心:
EARTH
卫星名称:
星链-5788
卫星全名:
星链-5788 (STARLINK-5788 )
卫星状态:
在轨 (已飞行1179 天)
发射日期:
2023-06-23 UTC
国别 :
美国 (US)
星等 :
--
This satellite is enrolled in the Space Conjunction Data Service (SCDS) and the current flight risk assessment level is: No High Risk
Orbit Information
数据来源 国际轨道数据 AOE轨道数据
星历时间 2026-09-14T10:16:38+0800
17小时前
查看轨道信息
2026-09-10T06:00:00+0800
4天前
查看轨道信息
半长轴 6861.208km 6861.12km
偏心率 0.0001282 0.0002102
轨道倾角 43.002° 43.003°
近地点辐角 263.469° 232.272°
升交点赤经 279.655° 303.253°
平近点角 96.602° 163.729°
近地点 482.191km 481.54km
远地点 483.951km 484.426km
周期 94.267分钟 94.265分钟
每日圈数 15.27573 15.276023
Detailed Information
固有亮度:
5
最大亮度:
2.4
卫星平台:
Starlink v1.5
覆盖范围:
全球
运营商:
太空探索技术公司
运营商所在国:
美国
制造商(研发单位):
太空探索技术公司
制造商所在国:
美国
使用方式:
暂无
Satellite Introduction
星链(Starlink)计划是由太空探索技术公司(SpaceX)提出的一个巨型低轨卫星互联网星座项目,计划在2019年至2024年间在太空搭建由约1.2万颗卫星组成的“星链”网络,其中1584颗将部署在地球上空550千米处的近地轨道,并从2020年开始工作。该卫星仍在工作。
2D Orbit Map
3D Orbit Map
Orbit Altitude Analysis Chart
Orbit Inclination Analysis Chart
Orbit Comprehensive Analysis Chart
View Comprehensive Chart
Conjunction Data List
Event ID Objects TCA Miss Dist (km) Collision Risk Probability Collision Risk Index (CRI) Action
CDM_260916-030005-714806-341122
2026-09-16T
03:00:53+0000
0.180 km
中距离
7.756684E-4 高风险 0.93
CDM_260916-132805-714806-742222
2026-09-16T
13:28:30+0000
0.594 km
远距离
4.265874E-5 中风险 0.68
CDM_260917-042605-714806-653421
2026-09-17T
04:26:54+0000
0.740 km
远距离
1.555656E-5 中风险 0.59
CDM_260916-162105-714806-341122
2026-09-16T
16:21:11+0000
1.179 km
极远距离
1.164088E-5 中风险 0.56
CDM_260911-004405-714806-712422
2026-09-11T
00:44:41+0000
1.365 km
极远距离
5.859124E-6 低风险 0.5
CDM_260911-021805-714806-712421
2026-09-11T
02:18:50+0000
1.862 km
极远距离
2.28057E-6 低风险 0.42
CDM_260916-110705-714806-742222
2026-09-16T
11:07:16+0000
1.518 km
极远距离
1.975003E-6 低风险 0.41
CDM_260916-175505-714806-341122
2026-09-16T
17:55:20+0000
2.405 km
极远距离
1.496496E-6 低风险 0.39
CDM_260916-043505-714806-341122
2026-09-16T
04:35:02+0000
2.436 km
极远距离
1.461656E-6 低风险 0.38
CDM_260916-012605-714806-341121
2026-09-16T
01:26:44+0000
2.747 km
极远距离
1.202638E-6 低风险 0.37
Miss Distance Evolution Trend with All Objects Subscribe to Flight Safety Assessment
Collision Probability Evolution Trend with All Objects Subscribe to Flight Safety Assessment